Accueil
METAR-TAF:

METAR-TAF

Aéroports :

Lee's Summit Municipal Airport

Lee's Summit, Missouri, États-Unis

latitude: 38-57-35N, longitude: 094-22-18W, altitude: 306 m

Observation

Le bulletin a été fait il y a 19 minutes, à 18:53 UTC
Vent 11 kt de sud/sud-est
Température 19°C
Humidité 52%
Pression 1012 hPa
Visibilité: 16.1 km
Ciel couvert à une hauteur de 6500 ft

METAR: KLXT 021853Z AUTO 15011KT 10SM OVC065 19/09 A2987 RMK AO2 RAB04E18 SLP109 P0000 T01940094

Heure: 14:12 (19:12 UTC)


TAF: absent

Observations et prévisions météorologiques de plus de 4000 aéroports (messages METAR et TAF).

Les stations disponibles sont représentées par des disques jaunes et rouges sur la carte.

Passer la souris dessus pour voir le nom de la station.

Cliquer dessus pour voir les observations et prévisions météorologiques.

Pour changer de carte: cliquez sur les boutons verts avec une croix noire pour zoomer, sur le bouton vert avec un tiret pour effectuer un zoom arrière, ou sur les flèches vertes pour les cartes adjacentes.


METAR-TAF: